Location: ?????
(31.8092°N, 35.2590°E)
Time: 18:56:28
(UTC+00:00)

Meteor 2-20 Rocket - Pass Details

Date: 20 June 2021
Orbit: 940 x 959 km, 82.5° (Epoch: 01 August)

Event Time Altitude Azimuth Distance (km) Brightness Sun altitude
Exits shadow 18:09:35 - 184° (S) 3,305 6.9 -15.2°
Reaches altitude 10° 18:11:15 10° 184° (S) 2,669 6.5 -15.5°
Maximum altitude 18:17:22 89° 107° (ESE) 954 4.4 -16.4°
Drops below altitude 10° 18:23:30 10° 6° (N) 2,670 7.3 -17.4°
Sets 18:25:59 0° 7° (N) 3,616 8.0 -17.8°
